schwarzau.laxi.at
Wetterdaten: aktuell Montag, 22.04.2019 04:25
Datum Zeit Temp. I. Temp. A. Temp. Wind Windchill X Feuchte I. Feuchte A. Luftdruck Regen Wind Richtung Richtung Taupunkt Windchill Windben
22.04.2019 04:25 19,6 C 3,3 C 2,0 C -0,6 C 47 % 76 % 1015,8 hPa 0,0 l/m 3,5 km/h (1 Bft) S-SO 157 -0,5 C -0,6 C 3,5 km/h (1 Bft)
22.04.2019 04:20 19,7 C 3,0 C 1,8 C -0,6 C 47 % 76 % 1016,2 hPa 0,0 l/m 4,8 km/h (1 Bft) O-SO 112 -0,8 C -2,2 C 4,5 km/h (1 Bft)
22.04.2019 04:15 19,7 C 3,0 C 1,7 C -0,9 C 47 % 75 % 1016,2 hPa 0,0 l/m 5,8 km/h (2 Bft) SO 135 -1,0 C -3,0 C 5,5 km/h (2 Bft)
22.04.2019 04:10 19,7 C 3,1 C 1,9 C -0,5 C 47 % 75 % 1016,2 hPa 0,0 l/m 4,5 km/h (1 Bft) S-SO 157 -0,9 C -0,5 C 10,6 km/h (2 Bft)
22.04.2019 04:05 19,7 C 3,3 C 2,0 C -0,5 C 47 % 75 % 1016,2 hPa 0,0 l/m 3,2 km/h (1 Bft) SO 135 -0,7 C -0,5 C 8,7 km/h (2 Bft)
22.04.2019 04:00 19,7 C 3,3 C 2,1 C -0,4 C 47 % 74 % 1016,3 hPa 0,0 l/m 1,3 km/h (1 Bft) S 180 -0,9 C -0,4 C 3,2 km/h (1 Bft)
22.04.2019 03:55 19,7 C 3,5 C 2,2 C -0,4 C 47 % 75 % 1016,3 hPa 0,0 l/m 1,6 km/h (1 Bft) SO 135 -0,5 C -0,4 C 3,2 km/h (1 Bft)
22.04.2019 03:50 19,8 C 3,5 C 2,2 C -0,3 C 47 % 75 % 1016,3 hPa 0,0 l/m 2,6 km/h (1 Bft) S-SO 157 -0,5 C -0,3 C 4,2 km/h (1 Bft)
22.04.2019 03:45 19,8 C 3,7 C 2,4 C -0,3 C 47 % 74 % 1016,3 hPa 0,0 l/m 2,3 km/h (1 Bft) S-SO 157 -0,5 C -0,3 C 7,1 km/h (2 Bft)
22.04.2019 03:40 19,8 C 3,7 C 2,4 C -0,2 C 47 % 75 % 1016,5 hPa 0,0 l/m 1,6 km/h (1 Bft) S-SO 157 -0,3 C -0,2 C 0,0 km/h (0 Bft)
22.04.2019 03:35 19,8 C 3,5 C 2,3 C -0,1 C 47 % 75 % 1016,5 hPa 0,0 l/m 2,3 km/h (1 Bft) S 180 -0,5 C -0,1 C 0,0 km/h (0 Bft)
22.04.2019 03:30 19,8 C 3,7 C 2,4 C -0,1 C 47 % 74 % 1016,5 hPa 0,0 l/m 1,3 km/h (1 Bft) S-SW 202 -0,5 C -0,1 C 0,0 km/h (0 Bft)
22.04.2019 03:25 19,8 C 3,9 C 2,6 C -0,1 C 48 % 74 % 1016,5 hPa 0,0 l/m 1,9 km/h (1 Bft) S-SO 157 -0,3 C -0,1 C 6,4 km/h (2 Bft)
22.04.2019 03:20 19,8 C 4,2 C 2,8 C 0,1 C 47 % 74 % 1016,8 hPa 0,0 l/m 1,9 km/h (1 Bft) SO 135 -0,0 C 0,1 C 0,0 km/h (0 Bft)
22.04.2019 03:15 19,9 C 4,1 C 2,8 C 0,1 C 47 % 74 % 1016,8 hPa 0,0 l/m 1,0 km/h (0 Bft) SO 135 -0,1 C 0,1 C 7,4 km/h (2 Bft)
22.04.2019 03:10 19,9 C 4,1 C 2,8 C 0,1 C 47 % 74 % 1016,8 hPa 0,0 l/m 0,0 km/h (0 Bft) S-SO 157 -0,1 C 0,1 C 0,0 km/h (0 Bft)
22.04.2019 03:05 19,9 C 4,2 C 2,9 C 0,2 C 47 % 74 % 1016,8 hPa 0,0 l/m 0,0 km/h (0 Bft) S-SW 202 -0,0 C 0,2 C 0,0 km/h (0 Bft)
22.04.2019 03:00 19,9 C 4,3 C 3,0 C 0,4 C 47 % 74 % 1017,0 hPa 0,0 l/m 0,3 km/h (0 Bft) N 360 0,1 C 0,4 C 0,0 km/h (0 Bft)
22.04.2019 02:55 19,9 C 4,3 C 3,0 C 0,4 C 48 % 73 % 1017,0 hPa 0,0 l/m 1,3 km/h (1 Bft) S-SW 202 -0,1 C 0,4 C 0,0 km/h (0 Bft)
22.04.2019 02:50 19,9 C 4,7 C 3,3 C 0,5 C 48 % 73 % 1017,0 hPa 0,0 l/m 3,9 km/h (1 Bft) O-SO 112 0,3 C 0,5 C 0,0 km/h (0 Bft)
22.04.2019 02:45 20,0 C 5,0 C 3,6 C 0,7 C 47 % 73 % 1017,0 hPa 0,0 l/m 2,9 km/h (1 Bft) S-SO 157 0,6 C 0,7 C 0,0 km/h (0 Bft)
22.04.2019 02:40 20,0 C 4,6 C 3,3 C 0,7 C 47 % 74 % 1017,2 hPa 0,0 l/m 0,6 km/h (0 Bft) S-SO 157 0,4 C 0,7 C 5,8 km/h (2 Bft)
22.04.2019 02:35 20,0 C 4,7 C 3,4 C 0,7 C 47 % 73 % 1017,2 hPa 0,0 l/m 0,6 km/h (0 Bft) SW 225 0,3 C 0,7 C 0,0 km/h (0 Bft)
22.04.2019 02:30 20,0 C 4,7 C 3,4 C 0,7 C 47 % 73 % 1017,2 hPa 0,0 l/m 0,0 km/h (0 Bft) S-SO 157 0,3 C 0,7 C 0,0 km/h (0 Bft)
22.04.2019 02:25 20,0 C 4,8 C 3,5 C 0,8 C 48 % 73 % 1017,2 hPa 0,0 l/m 0,0 km/h (0 Bft) N-NO 22 0,4 C 0,8 C 0,0 km/h (0 Bft)
22.04.2019 02:20 20,0 C 4,7 C 3,4 C 0,9 C 48 % 73 % 1017,5 hPa 0,0 l/m 0,0 km/h (0 Bft) W 270 0,3 C 0,9 C 0,0 km/h (0 Bft)
22.04.2019 02:15 20,0 C 4,7 C 3,5 C 1,0 C 47 % 73 % 1017,5 hPa 0,0 l/m 0,0 km/h (0 Bft) S-SO 157 0,3 C 1,0 C 0,0 km/h (0 Bft)
22.04.2019 02:10 20,0 C 4,9 C 3,6 C 1,1 C 47 % 73 % 1017,5 hPa 0,0 l/m 0,6 km/h (0 Bft) SW 225 0,5 C 1,1 C 0,0 km/h (0 Bft)
22.04.2019 02:05 20,1 C 4,9 C 3,7 C 1,2 C 47 % 72 % 1017,5 hPa 0,0 l/m 1,0 km/h (0 Bft) S-SO 157 0,3 C 1,2 C 0,0 km/h (0 Bft)
22.04.2019 02:00 20,0 C 5,1 C 3,8 C 1,3 C 47 % 72 % 1017,9 hPa 0,0 l/m 1,0 km/h (0 Bft) SO 135 0,5 C 1,3 C 0,0 km/h (0 Bft)
22.04.2019 01:55 20,1 C 5,4 C 4,1 C 1,4 C 47 % 72 % 1017,9 hPa 0,0 l/m 1,3 km/h (1 Bft) SO 135 0,8 C 1,4 C 5,5 km/h (2 Bft)
22.04.2019 01:50 20,1 C 5,6 C 4,2 C 1,4 C 47 % 71 % 1017,9 hPa 0,0 l/m 1,3 km/h (1 Bft) S-SO 157 0,8 C 1,4 C 4,2 km/h (1 Bft)
22.04.2019 01:45 20,1 C 5,6 C 4,2 C 1,5 C 47 % 72 % 1017,9 hPa 0,0 l/m 1,0 km/h (0 Bft) S-SO 157 1,0 C 1,5 C 5,5 km/h (2 Bft)
22.04.2019 01:40 20,1 C 5,8 C 4,4 C 1,7 C 47 % 72 % 1018,3 hPa 0,0 l/m 0,0 km/h (0 Bft) SW 225 1,2 C 1,7 C 0,0 km/h (0 Bft)
22.04.2019 01:35 20,1 C 5,7 C 4,4 C 1,7 C 47 % 72 % 1018,3 hPa 0,0 l/m 0,0 km/h (0 Bft) N-NO 22 1,1 C 1,7 C 0,0 km/h (0 Bft)
22.04.2019 01:30 20,1 C 5,9 C 4,6 C 1,9 C 47 % 72 % 1018,3 hPa 0,0 l/m 0,0 km/h (0 Bft) N-NO 22 1,2 C 1,9 C 0,0 km/h (0 Bft)
22.04.2019 01:25 20,1 C 5,8 C 4,5 C 2,0 C 47 % 71 % 1018,3 hPa 0,0 l/m 0,0 km/h (0 Bft) O-NO 67 1,0 C 2,0 C 0,0 km/h (0 Bft)
22.04.2019 01:20 20,2 C 5,8 C 4,6 C 2,1 C 47 % 71 % 1018,4 hPa 0,0 l/m 1,0 km/h (0 Bft) SO 135 1,0 C 2,1 C 0,0 km/h (0 Bft)
22.04.2019 01:15 20,2 C 6,1 C 4,8 C 2,3 C 47 % 70 % 1018,4 hPa 0,0 l/m 2,9 km/h (1 Bft) SO 135 1,0 C 2,3 C 0,0 km/h (0 Bft)
22.04.2019 01:10 20,2 C 6,4 C 5,1 C 2,5 C 47 % 70 % 1018,4 hPa 0,0 l/m 2,3 km/h (1 Bft) S-SO 157 1,3 C 2,5 C 8,4 km/h (2 Bft)
22.04.2019 01:05 20,2 C 6,4 C 5,2 C 2,7 C 47 % 71 % 1018,4 hPa 0,0 l/m 1,0 km/h (0 Bft) SO 135 1,5 C 2,7 C 8,0 km/h (2 Bft)
22.04.2019 01:00 20,2 C 6,3 C 5,1 C 2,8 C 47 % 71 % 1018,4 hPa 0,0 l/m 0,0 km/h (0 Bft) N-NW 337 1,4 C 2,8 C 0,0 km/h (0 Bft)
22.04.2019 00:55 20,2 C 6,4 C 5,2 C 2,8 C 47 % 70 % 1018,4 hPa 0,0 l/m 0,0 km/h (0 Bft) W 270 1,3 C 2,8 C 3,2 km/h (1 Bft)
22.04.2019 00:50 20,2 C 6,5 C 5,3 C 2,9 C 47 % 70 % 1018,4 hPa 0,0 l/m 0,6 km/h (0 Bft) NW 315 1,4 C 2,9 C 0,0 km/h (0 Bft)
22.04.2019 00:45 20,2 C 6,5 C 5,4 C 3,1 C 47 % 69 % 1018,4 hPa 0,0 l/m 1,3 km/h (1 Bft) W-NW 292 1,2 C 3,1 C 0,0 km/h (0 Bft)
22.04.2019 00:40 20,3 C 7,0 C 5,8 C 3,3 C 47 % 69 % 1018,8 hPa 0,0 l/m 1,9 km/h (1 Bft) S-SO 157 1,7 C 3,3 C 3,5 km/h (1 Bft)
22.04.2019 00:35 20,3 C 7,1 C 5,9 C 3,6 C 47 % 70 % 1018,8 hPa 0,0 l/m 1,6 km/h (1 Bft) O-NO 67 2,0 C 3,6 C 6,8 km/h (2 Bft)
22.04.2019 00:30 20,3 C 6,9 C 5,9 C 3,8 C 47 % 70 % 1018,8 hPa 0,0 l/m 1,3 km/h (1 Bft) NW 315 1,8 C 3,8 C 5,5 km/h (2 Bft)
22.04.2019 00:25 20,2 C 6,8 C 5,8 C 3,8 C 47 % 70 % 1018,8 hPa 0,0 l/m 2,3 km/h (1 Bft) N 360 1,7 C 3,8 C 0,0 km/h (0 Bft)
22.04.2019 00:20 20,3 C 6,8 C 5,6 C 3,3 C 47 % 70 % 1018,9 hPa 0,0 l/m 1,6 km/h (1 Bft) W 270 1,7 C 3,3 C 3,9 km/h (1 Bft)
22.04.2019 00:15 20,2 C 6,9 C 5,6 C 3,1 C 47 % 70 % 1018,9 hPa 0,0 l/m 0,3 km/h (0 Bft) NW 315 1,8 C 3,1 C 3,9 km/h (1 Bft)
22.04.2019 00:10 20,2 C 7,1 C 5,8 C 3,1 C 47 % 69 % 1018,9 hPa 0,0 l/m 0,0 km/h (0 Bft) N 360 1,8 C 3,1 C 0,0 km/h (0 Bft)
22.04.2019 00:05 20,2 C 7,1 C 5,8 C 3,2 C 47 % 69 % 1018,9 hPa 0,0 l/m 0,0 km/h (0 Bft) W 270 1,8 C 3,2 C 0,0 km/h (0 Bft)
22.04.2019 00:00 20,4 C 7,2 C 5,9 C 3,4 C 47 % 68 % 1019,0 hPa 0,0 l/m 0,6 km/h (0 Bft) O-SO 112 1,7 C 3,4 C 0,0 km/h (0 Bft)
21.04.2019 23:55 20,4 C 7,3 C 6,1 C 3,6 C 47 % 68 % 1019,0 hPa 0,0 l/m 2,6 km/h (1 Bft) S-SO 157 1,8 C 3,6 C 0,0 km/h (0 Bft)
21.04.2019 23:50 20,4 C 7,4 C 6,2 C 3,7 C 47 % 68 % 1019,0 hPa 0,0 l/m 2,3 km/h (1 Bft) S-SO 157 1,9 C 3,7 C 5,1 km/h (1 Bft)
21.04.2019 23:45 20,4 C 7,6 C 6,3 C 3,8 C 47 % 68 % 1019,0 hPa 0,0 l/m 0,6 km/h (0 Bft) SO 135 2,1 C 3,8 C 6,8 km/h (2 Bft)
21.04.2019 23:40 20,4 C 7,6 C 6,4 C 4,1 C 47 % 68 % 1018,9 hPa 0,0 l/m 0,6 km/h (0 Bft) S-SO 157 2,1 C 4,1 C 0,0 km/h (0 Bft)
21.04.2019 23:35 20,4 C 7,6 C 6,5 C 4,3 C 47 % 68 % 1018,9 hPa 0,0 l/m 0,6 km/h (0 Bft) S-SW 202 2,1 C 4,3 C 0,0 km/h (0 Bft)
21.04.2019 23:30 20,4 C 7,8 C 6,7 C 4,5 C 47 % 68 % 1018,9 hPa 0,0 l/m 0,0 km/h (0 Bft) SO 135 2,3 C 4,5 C 0,0 km/h (0 Bft)
21.04.2019 23:25 20,4 C 7,9 C 6,8 C 4,5 C 47 % 68 % 1018,9 hPa 0,0 l/m 0,0 km/h (0 Bft) NW 315 2,4 C 4,5 C 0,0 km/h (0 Bft)
21.04.2019 23:20 20,4 C 7,9 C 6,8 C 4,5 C 47 % 68 % 1019,1 hPa 0,0 l/m 0,0 km/h (0 Bft) W-NW 292 2,4 C 4,5 C 0,0 km/h (0 Bft)
21.04.2019 23:15 20,4 C 7,9 C 6,8 C 4,7 C 47 % 67 % 1019,1 hPa 0,0 l/m 1,0 km/h (0 Bft) W-NW 292 2,2 C 4,7 C 0,0 km/h (0 Bft)
21.04.2019 23:10 20,4 C 8,1 C 7,0 C 4,8 C 47 % 66 % 1019,1 hPa 0,0 l/m 1,6 km/h (1 Bft) O-SO 112 2,1 C 4,8 C 0,0 km/h (0 Bft)
21.04.2019 23:05 20,4 C 8,3 C 7,2 C 5,1 C 47 % 66 % 1019,1 hPa 0,0 l/m 0,6 km/h (0 Bft) SO 135 2,3 C 5,1 C 4,5 km/h (1 Bft)
21.04.2019 23:00 20,5 C 8,6 C 7,5 C 5,4 C 47 % 66 % 1019,1 hPa 0,0 l/m 0,3 km/h (0 Bft) SO 135 2,6 C 5,4 C 3,9 km/h (1 Bft)
21.04.2019 22:55 20,4 C 8,8 C 7,7 C 5,6 C 47 % 66 % 1019,1 hPa 0,0 l/m 0,3 km/h (0 Bft) S-SO 157 2,8 C 5,6 C 3,2 km/h (1 Bft)
21.04.2019 22:50 20,5 C 8,7 C 7,7 C 5,8 C 47 % 67 % 1019,1 hPa 0,0 l/m 0,0 km/h (0 Bft) N 360 2,9 C 5,8 C 0,0 km/h (0 Bft)
21.04.2019 22:45 20,5 C 8,9 C 7,9 C 5,9 C 47 % 66 % 1019,1 hPa 0,0 l/m 0,0 km/h (0 Bft) NW 315 2,9 C 5,9 C 0,0 km/h (0 Bft)
21.04.2019 22:40 20,5 C 9,0 C 7,9 C 5,7 C 47 % 66 % 1019,8 hPa 0,0 l/m 0,6 km/h (0 Bft) NW 315 3,0 C 5,7 C 3,2 km/h (1 Bft)
21.04.2019 22:35 20,5 C 9,1 C 8,0 C 5,9 C 47 % 65 % 1019,8 hPa 0,0 l/m 0,3 km/h (0 Bft) N 360 2,9 C 5,9 C 0,0 km/h (0 Bft)
21.04.2019 22:30 20,5 C 9,2 C 8,1 C 6,0 C 47 % 65 % 1019,8 hPa 0,0 l/m 0,0 km/h (0 Bft) SW 225 3,0 C 6,0 C 0,0 km/h (0 Bft)
21.04.2019 22:25 20,5 C 9,3 C 8,2 C 6,0 C 47 % 65 % 1019,8 hPa 0,0 l/m 0,0 km/h (0 Bft) N 360 3,1 C 6,0 C 0,0 km/h (0 Bft)
21.04.2019 22:20 20,5 C 9,4 C 8,3 C 6,1 C 47 % 64 % 1019,3 hPa 0,0 l/m 0,0 km/h (0 Bft) N 360 2,9 C 6,1 C 0,0 km/h (0 Bft)
21.04.2019 22:15 20,6 C 9,5 C 8,4 C 6,1 C 47 % 64 % 1019,3 hPa 0,0 l/m 0,0 km/h (0 Bft) W-NW 292 3,0 C 6,1 C 0,0 km/h (0 Bft)
21.04.2019 22:10 20,6 C 9,6 C 8,4 C 6,0 C 47 % 64 % 1019,3 hPa 0,0 l/m 0,0 km/h (0 Bft) NW 315 3,1 C 6,0 C 0,0 km/h (0 Bft)
21.04.2019 22:05 20,6 C 9,6 C 8,4 C 6,1 C 47 % 64 % 1019,3 hPa 0,0 l/m 0,3 km/h (0 Bft) NW 315 3,1 C 6,1 C 0,0 km/h (0 Bft)
21.04.2019 22:00 20,6 C 9,9 C 8,7 C 6,4 C 47 % 63 % 1019,5 hPa 0,0 l/m 0,6 km/h (0 Bft) NO 45 3,2 C 6,4 C 0,0 km/h (0 Bft)
21.04.2019 21:55 20,6 C 10,0 C 8,8 C 6,5 C 47 % 63 % 1019,5 hPa 0,0 l/m 1,0 km/h (0 Bft) S-SO 157 3,3 C 6,5 C 4,2 km/h (1 Bft)
21.04.2019 21:50 20,6 C 10,2 C 9,1 C 6,8 C 47 % 62 % 1019,5 hPa 0,0 l/m 0,3 km/h (0 Bft) S-SO 157 3,3 C 6,8 C 3,5 km/h (1 Bft)
21.04.2019 21:45 20,6 C 10,3 C 9,2 C 6,9 C 47 % 62 % 1019,5 hPa 0,0 l/m 0,0 km/h (0 Bft) SO 135 3,3 C 6,9 C 3,5 km/h (1 Bft)
21.04.2019 21:40 20,6 C 10,4 C 9,3 C 7,2 C 47 % 62 % 1019,3 hPa 0,0 l/m 0,0 km/h (0 Bft) N-NW 337 3,4 C 7,2 C 0,0 km/h (0 Bft)
21.04.2019 21:35 20,6 C 10,5 C 9,4 C 7,2 C 47 % 62 % 1019,3 hPa 0,0 l/m 0,0 km/h (0 Bft) N-NW 337 3,5 C 7,2 C 0,0 km/h (0 Bft)
21.04.2019 21:30 20,6 C 10,7 C 9,6 C 7,3 C 47 % 61 % 1019,3 hPa 0,0 l/m 0,0 km/h (0 Bft) W-NW 292 3,5 C 7,3 C 0,0 km/h (0 Bft)
21.04.2019 21:25 20,6 C 10,8 C 9,7 C 7,5 C 47 % 61 % 1019,3 hPa 0,0 l/m 0,0 km/h (0 Bft) S-SO 157 3,6 C 7,5 C 0,0 km/h (0 Bft)
21.04.2019 21:20 20,6 C 11,0 C 9,9 C 7,8 C 47 % 61 % 1019,2 hPa 0,0 l/m 0,0 km/h (0 Bft) S-SO 157 3,8 C 7,8 C 0,0 km/h (0 Bft)
21.04.2019 21:15 20,7 C 11,1 C 10,0 C 7,9 C 47 % 60 % 1019,2 hPa 0,0 l/m 0,0 km/h (0 Bft) N-NW 337 3,6 C 7,9 C 0,0 km/h (0 Bft)
21.04.2019 21:10 20,7 C 11,3 C 10,2 C 8,0 C 47 % 60 % 1019,2 hPa 0,0 l/m 0,0 km/h (0 Bft) NO 45 3,8 C 8,0 C 0,0 km/h (0 Bft)
21.04.2019 21:05 20,7 C 11,4 C 10,3 C 8,1 C 47 % 59 % 1019,2 hPa 0,0 l/m 0,0 km/h (0 Bft) NO 45 3,7 C 8,1 C 0,0 km/h (0 Bft)
21.04.2019 21:00 20,7 C 11,5 C 10,5 C 8,4 C 47 % 58 % 1019,2 hPa 0,0 l/m 0,0 km/h (0 Bft) S-SO 157 3,5 C 8,4 C 0,0 km/h (0 Bft)
21.04.2019 20:55 20,7 C 11,8 C 10,7 C 8,5 C 47 % 59 % 1019,2 hPa 0,0 l/m 0,0 km/h (0 Bft) S-SO 157 4,1 C 8,5 C 0,0 km/h (0 Bft)
21.04.2019 20:50 20,7 C 11,9 C 10,9 C 8,9 C 47 % 58 % 1019,2 hPa 0,0 l/m 0,0 km/h (0 Bft) NO 45 3,9 C 8,9 C 0,0 km/h (0 Bft)
21.04.2019 20:45 20,7 C 12,1 C 11,1 C 9,1 C 47 % 57 % 1019,2 hPa 0,0 l/m 0,0 km/h (0 Bft) NO 45 3,8 C 9,1 C 0,0 km/h (0 Bft)
21.04.2019 20:40 20,7 C 12,3 C 11,3 C 9,4 C 47 % 57 % 1019,2 hPa 0,0 l/m 0,0 km/h (0 Bft) S 180 4,0 C 9,4 C 0,0 km/h (0 Bft)
21.04.2019 20:35 20,7 C 12,4 C 11,5 C 9,6 C 47 % 56 % 1019,2 hPa 0,0 l/m 0,0 km/h (0 Bft) O-SO 112 3,9 C 9,6 C 0,0 km/h (0 Bft)
21.04.2019 20:30 20,8 C 12,6 C 11,7 C 9,8 C 47 % 56 % 1019,2 hPa 0,0 l/m 0,0 km/h (0 Bft) N 360 4,1 C 9,8 C 0,0 km/h (0 Bft)
21.04.2019 20:25 20,8 C 12,7 C 11,8 C 10,0 C 47 % 56 % 1019,2 hPa 0,0 l/m 0,0 km/h (0 Bft) NW 315 4,2 C 10,0 C 3,2 km/h (1 Bft)
21.04.2019 20:20 20,8 C 12,9 C 12,0 C 10,2 C 47 % 55 % 1019,2 hPa 0,0 l/m 0,0 km/h (0 Bft) NW 315 4,1 C 10,2 C 0,0 km/h (0 Bft)
21.04.2019 20:15 20,8 C 13,0 C 12,1 C 10,4 C 47 % 55 % 1019,2 hPa 0,0 l/m 0,0 km/h (0 Bft) NW 315 4,2 C 10,4 C 0,0 km/h (0 Bft)
21.04.2019 20:10 20,8 C 13,3 C 12,4 C 10,6 C 47 % 54 % 1019,2 hPa 0,0 l/m 0,0 km/h (0 Bft) NW 315 4,2 C 10,6 C 0,0 km/h (0 Bft)
21.04.2019 20:05 20,8 C 13,4 C 12,5 C 10,8 C 47 % 54 % 1019,2 hPa 0,0 l/m 0,0 km/h (0 Bft) NW 315 4,3 C 10,8 C 0,0 km/h (0 Bft)
21.04.2019 20:00 20,8 C 13,7 C 12,8 C 11,1 C 47 % 53 % 1019,0 hPa 0,0 l/m 0,0 km/h (0 Bft) SO 135 4,3 C 11,1 C 0,0 km/h (0 Bft)
21.04.2019 19:55 20,8 C 13,8 C 13,0 C 11,3 C 47 % 53 % 1019,0 hPa 0,0 l/m 0,0 km/h (0 Bft) S-SO 157 4,4 C 11,3 C 0,0 km/h (0 Bft)
21.04.2019 19:50 20,8 C 14,1 C 13,3 C 11,7 C 47 % 52 % 1019,0 hPa 0,0 l/m 1,0 km/h (0 Bft) S-SO 157 4,4 C 11,7 C 0,0 km/h (0 Bft)
21.04.2019 19:45 20,8 C 14,2 C 13,5 C 12,0 C 47 % 51 % 1019,0 hPa 0,0 l/m 1,0 km/h (0 Bft) NW 315 4,2 C 12,0 C 0,0 km/h (0 Bft)
21.04.2019 19:40 20,8 C 14,5 C 13,8 C 12,3 C 47 % 50 % 1018,8 hPa 0,0 l/m 3,2 km/h (1 Bft) SO 135 4,2 C 12,3 C 5,8 km/h (2 Bft)
21.04.2019 19:35 20,8 C 14,5 C 13,9 C 12,6 C 47 % 50 % 1018,8 hPa 0,0 l/m 2,6 km/h (1 Bft) NW 315 4,2 C 12,6 C 0,0 km/h (0 Bft)
21.04.2019 19:30 20,8 C 14,9 C 14,2 C 12,7 C 47 % 49 % 1018,8 hPa 0,0 l/m 1,0 km/h (0 Bft) SO 135 4,3 C 12,7 C 7,4 km/h (2 Bft)
21.04.2019 19:25 20,8 C 15,0 C 14,3 C 12,9 C 47 % 48 % 1018,8 hPa 0,0 l/m 1,3 km/h (1 Bft) N-NW 337 4,1 C 12,9 C 0,0 km/h (0 Bft)
21.04.2019 19:20 20,9 C 15,1 C 14,4 C 13,0 C 47 % 49 % 1019,1 hPa 0,0 l/m 1,6 km/h (1 Bft) W-SW 247 4,5 C 13,0 C 0,0 km/h (0 Bft)
21.04.2019 19:15 20,9 C 15,4 C 14,6 C 13,0 C 46 % 48 % 1019,1 hPa 0,0 l/m 0,6 km/h (0 Bft) SW 225 4,4 C 13,0 C 0,0 km/h (0 Bft)
21.04.2019 19:10 20,9 C 15,6 C 14,8 C 13,2 C 47 % 48 % 1019,1 hPa 0,0 l/m 0,0 km/h (0 Bft) S 180 4,6 C 13,2 C 3,5 km/h (1 Bft)
21.04.2019 19:05 20,9 C 15,8 C 15,0 C 13,3 C 47 % 48 % 1019,1 hPa 0,0 l/m 0,0 km/h (0 Bft) S-SW 202 4,8 C 13,3 C 0,0 km/h (0 Bft)
21.04.2019 19:00 20,9 C 16,0 C 15,2 C 13,6 C 46 % 46 % 1019,2 hPa 0,0 l/m 0,0 km/h (0 Bft) O-NO 67 4,4 C 13,6 C 0,0 km/h (0 Bft)
21.04.2019 18:55 20,9 C 16,2 C 15,4 C 13,8 C 46 % 45 % 1019,2 hPa 0,0 l/m 0,0 km/h (0 Bft) SO 135 4,3 C 13,8 C 0,0 km/h (0 Bft)
21.04.2019 18:50 20,9 C 16,5 C 15,7 C 14,1 C 46 % 44 % 1019,2 hPa 0,0 l/m 0,3 km/h (0 Bft) S-SW 202 4,2 C 14,1 C 0,0 km/h (0 Bft)
21.04.2019 18:45 20,9 C 16,6 C 15,9 C 14,4 C 46 % 44 % 1019,2 hPa 0,0 l/m 0,3 km/h (0 Bft) N 360 4,3 C 14,4 C 0,0 km/h (0 Bft)
21.04.2019 18:40 21,0 C 16,8 C 16,1 C 14,6 C 46 % 44 % 1019,6 hPa 0,0 l/m 0,3 km/h (0 Bft) O-SO 112 4,5 C 14,6 C 0,0 km/h (0 Bft)
21.04.2019 18:35 21,0 C 17,0 C 16,3 C 14,9 C 46 % 43 % 1019,6 hPa 0,0 l/m 0,3 km/h (0 Bft) W-NW 292 4,3 C 14,9 C 0,0 km/h (0 Bft)
21.04.2019 18:30 21,0 C 17,4 C 16,7 C 15,3 C 46 % 42 % 1019,6 hPa 0,0 l/m 1,6 km/h (1 Bft) SO 135 4,4 C 15,3 C 0,0 km/h (0 Bft)
21.04.2019 18:25 21,0 C 17,7 C 17,0 C 15,7 C 46 % 41 % 1019,6 hPa 0,0 l/m 1,9 km/h (1 Bft) N 360 4,3 C 15,7 C 0,0 km/h (0 Bft)
21.04.2019 18:20 21,0 C 17,9 C 17,4 C 16,3 C 46 % 41 % 1019,4 hPa 0,0 l/m 0,3 km/h (0 Bft) N-NO 22 4,5 C 16,3 C 0,0 km/h (0 Bft)
21.04.2019 18:15 21,0 C 18,0 C 17,6 C 16,8 C 46 % 39 % 1019,4 hPa 0,0 l/m 1,9 km/h (1 Bft) SO 135 3,8 C 16,8 C 0,0 km/h (0 Bft)
21.04.2019 18:10 21,0 C 18,4 C 18,2 C 17,8 C 46 % 39 % 1019,4 hPa 0,0 l/m 4,2 km/h (1 Bft) N-NO 22 4,2 C 17,8 C 0,0 km/h (0 Bft)
21.04.2019 18:05 21,1 C 18,7 C 18,8 C 18,8 C 46 % 37 % 1019,4 hPa 0,0 l/m 3,5 km/h (1 Bft) SO 135 3,7 C 18,8 C 8,0 km/h (2 Bft)
21.04.2019 18:00 21,1 C 19,2 C 20,8 C 20,8 C 46 % 36 % 1019,4 hPa 0,0 l/m 3,5 km/h (1 Bft) N 360 3,8 C 20,8 C 6,8 km/h (2 Bft)
21.04.2019 17:55 21,1 C 19,6 C 22,4 C 22,4 C 46 % 34 % 1019,4 hPa 0,0 l/m 4,8 km/h (1 Bft) N-NO 22 3,3 C 22,4 C 4,5 km/h (1 Bft)
21.04.2019 17:50 21,1 C 20,0 C 23,4 C 23,4 C 46 % 33 % 1019,4 hPa 0,0 l/m 6,1 km/h (2 Bft) SW 225 3,2 C 23,4 C 10,9 km/h (2 Bft)
21.04.2019 17:45 21,1 C 20,0 C 23,5 C 23,5 C 46 % 33 % 1019,4 hPa 0,0 l/m 6,8 km/h (2 Bft) O-NO 67 3,2 C 23,5 C 12,6 km/h (3 Bft)
21.04.2019 17:40 21,1 C 20,2 C 24,2 C 24,2 C 46 % 33 % 1019,6 hPa 0,0 l/m 6,4 km/h (2 Bft) N-NO 22 3,4 C 24,2 C 10,0 km/h (2 Bft)
21.04.2019 17:35 21,1 C 20,3 C 24,6 C 24,6 C 47 % 32 % 1019,6 hPa 0,0 l/m 4,2 km/h (1 Bft) S-SO 157 3,1 C 24,6 C 10,9 km/h (2 Bft)
21.04.2019 17:30 21,2 C 20,7 C 25,0 C 25,0 C 47 % 31 % 1019,6 hPa 0,0 l/m 2,6 km/h (1 Bft) S-SO 157 3,0 C 25,0 C 5,5 km/h (2 Bft)
21.04.2019 17:25 21,2 C 20,7 C 25,0 C 25,0 C 46 % 33 % 1019,6 hPa 0,0 l/m 2,9 km/h (1 Bft) O 90 3,9 C 25,0 C 3,5 km/h (1 Bft)
21.04.2019 17:20 21,2 C 21,1 C 25,1 C 25,1 C 46 % 32 % 1019,3 hPa 0,0 l/m 3,9 km/h (1 Bft) N 360 3,8 C 25,1 C 4,2 km/h (1 Bft)
21.04.2019 17:15 21,2 C 21,3 C 25,0 C 25,0 C 46 % 31 % 1019,3 hPa 0,0 l/m 4,8 km/h (1 Bft) N 360 3,5 C 25,0 C 0,0 km/h (0 Bft)
21.04.2019 17:10 21,2 C 21,7 C 25,2 C 25,2 C 46 % 31 % 1019,3 hPa 0,0 l/m 4,2 km/h (1 Bft) NW 315 3,8 C 25,2 C 6,1 km/h (2 Bft)
21.04.2019 17:05 21,2 C 21,9 C 25,6 C 25,6 C 46 % 32 % 1019,3 hPa 0,0 l/m 3,2 km/h (1 Bft) N 360 4,5 C 25,6 C 6,1 km/h (2 Bft)
21.04.2019 17:00 21,2 C 22,0 C 25,7 C 25,7 C 46 % 31 % 1019,9 hPa 0,0 l/m 2,6 km/h (1 Bft) O 90 4,1 C 25,7 C 4,5 km/h (1 Bft)
21.04.2019 16:55 21,2 C 22,2 C 25,7 C 25,7 C 46 % 30 % 1019,9 hPa 0,0 l/m 2,3 km/h (1 Bft) SW 225 3,8 C 25,7 C 0,0 km/h (0 Bft)
21.04.2019 16:50 21,2 C 22,4 C 25,4 C 25,4 C 46 % 32 % 1019,9 hPa 0,0 l/m 2,9 km/h (1 Bft) NW 315 4,9 C 25,4 C 0,0 km/h (0 Bft)
21.04.2019 16:45 21,2 C 22,2 C 25,2 C 25,2 C 45 % 31 % 1019,9 hPa 0,0 l/m 3,5 km/h (1 Bft) SO 135 4,3 C 25,2 C 3,2 km/h (1 Bft)
21.04.2019 16:40 21,2 C 21,9 C 25,0 C 25,0 C 45 % 29 % 1019,9 hPa 0,0 l/m 5,5 km/h (2 Bft) W-NW 292 3,1 C 25,0 C 8,7 km/h (2 Bft)
21.04.2019 16:35 21,2 C 22,2 C 25,0 C 25,0 C 45 % 30 % 1019,9 hPa 0,0 l/m 6,4 km/h (2 Bft) O-NO 67 3,8 C 25,0 C 3,9 km/h (1 Bft)
21.04.2019 16:30 21,2 C 22,1 C 25,4 C 25,4 C 45 % 30 % 1019,9 hPa 0,0 l/m 7,4 km/h (2 Bft) N-NO 22 3,7 C 25,4 C 14,2 km/h (3 Bft)
21.04.2019 16:25 21,2 C 22,1 C 25,5 C 25,5 C 45 % 30 % 1019,9 hPa 0,0 l/m 6,1 km/h (2 Bft) S-SW 202 3,7 C 25,5 C 11,6 km/h (2 Bft)
21.04.2019 16:20 21,2 C 22,8 C 26,1 C 26,1 C 45 % 29 % 1020,1 hPa 0,0 l/m 4,5 km/h (1 Bft) N-NO 22 3,8 C 26,1 C 8,0 km/h (2 Bft)
21.04.2019 16:15 21,2 C 22,8 C 26,1 C 26,1 C 45 % 29 % 1020,1 hPa 0,0 l/m 4,5 km/h (1 Bft) SO 135 3,8 C 26,1 C 6,8 km/h (2 Bft)
21.04.2019 16:10 21,2 C 22,9 C 26,1 C 26,1 C 45 % 30 % 1020,1 hPa 0,0 l/m 4,2 km/h (1 Bft) S-SO 157 4,4 C 26,1 C 6,4 km/h (2 Bft)
21.04.2019 16:05 21,2 C 22,6 C 25,9 C 25,9 C 45 % 30 % 1020,1 hPa 0,0 l/m 4,5 km/h (1 Bft) O 90 4,1 C 25,9 C 3,2 km/h (1 Bft)
21.04.2019 16:00 21,2 C 22,3 C 25,8 C 25,8 C 45 % 30 % 1020,4 hPa 0,0 l/m 5,1 km/h (1 Bft) O-NO 67 3,9 C 25,8 C 5,8 km/h (2 Bft)
21.04.2019 15:55 21,2 C 22,2 C 25,8 C 25,8 C 45 % 30 % 1020,4 hPa 0,0 l/m 5,1 km/h (1 Bft) O-SO 112 3,8 C 25,8 C 10,3 km/h (2 Bft)
21.04.2019 15:50 21,2 C 22,4 C 25,7 C 25,7 C 45 % 29 % 1020,4 hPa 0,0 l/m 4,8 km/h (1 Bft) SO 135 3,5 C 25,7 C 7,1 km/h (2 Bft)
21.04.2019 15:45 21,2 C 22,5 C 25,7 C 25,7 C 45 % 30 % 1020,4 hPa 0,0 l/m 5,1 km/h (1 Bft) W-NW 292 4,1 C 25,7 C 7,4 km/h (2 Bft)
21.04.2019 15:40 21,2 C 22,1 C 24,8 C 24,8 C 45 % 30 % 1020,7 hPa 0,0 l/m 6,4 km/h (2 Bft) S-SO 157 3,7 C 24,8 C 8,0 km/h (2 Bft)
21.04.2019 15:35 21,3 C 22,2 C 24,7 C 24,7 C 45 % 29 % 1020,7 hPa 0,0 l/m 7,7 km/h (2 Bft) W-SW 247 3,3 C 24,7 C 5,1 km/h (1 Bft)
21.04.2019 15:30 21,3 C 22,5 C 25,3 C 25,3 C 45 % 28 % 1020,7 hPa 0,0 l/m 6,8 km/h (2 Bft) W 270 3,1 C 25,3 C 13,5 km/h (3 Bft)
21.04.2019 15:25 21,2 C 22,6 C 25,1 C 25,1 C 45 % 28 % 1020,7 hPa 0,0 l/m 6,1 km/h (2 Bft) SO 135 3,2 C 25,1 C 9,7 km/h (2 Bft)
21.04.2019 15:20 21,2 C 22,5 C 24,6 C 24,6 C 45 % 29 % 1020,8 hPa 0,0 l/m 5,8 km/h (2 Bft) NW 315 3,6 C 24,6 C 4,2 km/h (1 Bft)
21.04.2019 15:15 21,3 C 22,5 C 24,8 C 24,8 C 45 % 29 % 1020,8 hPa 0,0 l/m 5,1 km/h (1 Bft) SO 135 3,6 C 24,8 C 6,8 km/h (2 Bft)
21.04.2019 15:10 21,3 C 22,6 C 25,2 C 25,2 C 45 % 30 % 1020,8 hPa 0,0 l/m 7,7 km/h (2 Bft) O-SO 112 4,1 C 25,2 C 5,1 km/h (1 Bft)
21.04.2019 15:05 21,3 C 22,5 C 25,0 C 25,0 C 45 % 29 % 1020,8 hPa 0,0 l/m 9,0 km/h (2 Bft) NW 315 3,6 C 25,0 C 10,9 km/h (2 Bft)
21.04.2019 15:00 21,3 C 22,4 C 25,6 C 25,6 C 44 % 29 % 1020,8 hPa 0,0 l/m 9,0 km/h (2 Bft) N 360 3,5 C 25,6 C 13,2 km/h (3 Bft)
21.04.2019 14:55 21,2 C 22,4 C 25,4 C 25,4 C 44 % 28 % 1020,8 hPa 0,0 l/m 8,7 km/h (2 Bft) N-NW 337 3,0 C 25,4 C 5,1 km/h (1 Bft)
21.04.2019 14:50 21,2 C 22,5 C 25,7 C 25,7 C 44 % 28 % 1020,8 hPa 0,0 l/m 5,8 km/h (2 Bft) S-SO 157 3,1 C 25,7 C 16,7 km/h (3 Bft)
21.04.2019 14:45 21,3 C 22,3 C 25,0 C 25,0 C 44 % 30 % 1020,8 hPa 0,0 l/m 3,9 km/h (1 Bft) O-SO 112 3,9 C 25,0 C 6,4 km/h (2 Bft)
21.04.2019 14:40 21,2 C 21,9 C 23,6 C 23,6 C 44 % 30 % 1021,1 hPa 0,0 l/m 6,1 km/h (2 Bft) W-NW 292 3,5 C 23,6 C 10,6 km/h (2 Bft)
21.04.2019 14:35 21,2 C 21,7 C 24,9 C 24,9 C 44 % 29 % 1021,1 hPa 0,0 l/m 7,7 km/h (2 Bft) N 360 2,9 C 24,9 C 11,3 km/h (2 Bft)
21.04.2019 14:30 21,2 C 22,2 C 25,2 C 25,2 C 44 % 29 % 1021,1 hPa 0,0 l/m 8,7 km/h (2 Bft) NW 315 3,3 C 25,2 C 10,9 km/h (2 Bft)
21.04.2019 14:25 21,2 C 22,0 C 25,1 C 25,1 C 44 % 28 % 1021,1 hPa 0,0 l/m 9,7 km/h (2 Bft) O-NO 67 2,7 C 25,1 C 10,0 km/h (2 Bft)
21.04.2019 14:20 21,2 C 22,2 C 25,4 C 25,4 C 44 % 28 % 1021,2 hPa 0,0 l/m 10,6 km/h (2 Bft) N-NW 337 2,8 C 25,4 C 30,9 km/h (5 Bft)
21.04.2019 14:15 21,2 C 22,1 C 26,0 C 26,0 C 44 % 28 % 1021,2 hPa 0,0 l/m 8,0 km/h (2 Bft) W-NW 292 2,7 C 26,0 C 7,1 km/h (2 Bft)
21.04.2019 14:10 21,4 C 22,5 C 25,8 C 25,8 C 44 % 29 % 1021,2 hPa 0,0 l/m 6,8 km/h (2 Bft) SO 135 3,6 C 25,8 C 7,7 km/h (2 Bft)
21.04.2019 14:05 21,2 C 22,2 C 25,4 C 25,4 C 44 % 29 % 1021,2 hPa 0,0 l/m 5,8 km/h (2 Bft) NW 315 3,3 C 25,4 C 0,0 km/h (0 Bft)
21.04.2019 14:00 21,4 C 21,9 C 25,1 C 25,1 C 44 % 30 % 1021,5 hPa 0,0 l/m 5,5 km/h (2 Bft) N 360 3,5 C 25,1 C 9,7 km/h (2 Bft)
21.04.2019 13:55 21,4 C 21,6 C 25,1 C 25,1 C 43 % 29 % 1021,5 hPa 0,0 l/m 6,4 km/h (2 Bft) W 270 2,8 C 25,1 C 5,5 km/h (2 Bft)
21.04.2019 13:50 21,4 C 21,9 C 25,8 C 25,8 C 43 % 28 % 1021,5 hPa 0,0 l/m 5,8 km/h (2 Bft) N-NW 337 2,6 C 25,8 C 10,9 km/h (2 Bft)
21.04.2019 13:45 21,4 C 21,8 C 25,6 C 25,6 C 43 % 28 % 1021,5 hPa 0,0 l/m 7,1 km/h (2 Bft) N-NW 337 2,5 C 25,6 C 11,9 km/h (2 Bft)
21.04.2019 13:40 21,4 C 21,8 C 25,2 C 25,2 C 43 % 29 % 1021,6 hPa 0,0 l/m 6,8 km/h (2 Bft) SW 225 3,0 C 25,2 C 4,2 km/h (1 Bft)
21.04.2019 13:35 21,4 C 21,9 C 25,4 C 25,4 C 43 % 29 % 1021,6 hPa 0,0 l/m 7,4 km/h (2 Bft) N-NW 337 3,1 C 25,4 C 13,8 km/h (3 Bft)
21.04.2019 13:30 21,4 C 21,8 C 25,1 C 25,1 C 43 % 28 % 1021,6 hPa 0,0 l/m 7,1 km/h (2 Bft) NO 45 2,5 C 25,1 C 0,0 km/h (0 Bft)
21.04.2019 13:25 21,4 C 21,6 C 25,0 C 25,0 C 42 % 29 % 1021,6 hPa 0,0 l/m 7,7 km/h (2 Bft) W 270 2,8 C 25,0 C 6,4 km/h (2 Bft)
21.04.2019 13:20 21,5 C 21,4 C 24,7 C 24,7 C 42 % 29 % 1022,0 hPa 0,0 l/m 7,7 km/h (2 Bft) NW 315 2,6 C 24,7 C 7,4 km/h (2 Bft)
21.04.2019 13:15 21,5 C 21,4 C 24,8 C 24,8 C 42 % 29 % 1022,0 hPa 0,0 l/m 8,4 km/h (2 Bft) SW 225 2,6 C 24,8 C 8,0 km/h (2 Bft)
21.04.2019 13:10 21,5 C 21,2 C 24,6 C 24,6 C 42 % 29 % 1022,0 hPa 0,0 l/m 9,3 km/h (2 Bft) N-NO 22 2,5 C 24,6 C 7,7 km/h (2 Bft)
21.04.2019 13:05 21,5 C 21,2 C 24,8 C 24,8 C 41 % 30 % 1022,0 hPa 0,0 l/m 9,7 km/h (2 Bft) N-NW 337 2,9 C 24,8 C 26,1 km/h (4 Bft)
21.04.2019 13:00 21,5 C 21,1 C 24,8 C 24,8 C 41 % 30 % 1022,2 hPa 0,0 l/m 8,4 km/h (2 Bft) N 360 2,8 C 24,8 C 10,0 km/h (2 Bft)
21.04.2019 12:55 21,5 C 21,0 C 25,0 C 25,0 C 41 % 29 % 1022,2 hPa 0,0 l/m 7,1 km/h (2 Bft) N-NO 22 2,3 C 25,0 C 5,5 km/h (2 Bft)
21.04.2019 12:50 21,5 C 20,9 C 24,7 C 24,7 C 40 % 31 % 1022,2 hPa 0,0 l/m 8,7 km/h (2 Bft) NO 45 3,1 C 24,7 C 22,2 km/h (4 Bft)
21.04.2019 12:45 21,5 C 20,7 C 24,6 C 24,6 C 40 % 31 % 1022,2 hPa 0,0 l/m 9,3 km/h (2 Bft) S-SW 202 3,0 C 24,6 C 10,3 km/h (2 Bft)
21.04.2019 12:40 21,5 C 20,7 C 25,1 C 25,1 C 39 % 30 % 1022,6 hPa 0,0 l/m 6,8 km/h (2 Bft) NW 315 2,5 C 25,1 C 13,8 km/h (3 Bft)
21.04.2019 12:35 21,5 C 20,5 C 25,4 C 25,4 C 39 % 31 % 1022,6 hPa 0,0 l/m 6,8 km/h (2 Bft) NW 315 2,8 C 25,4 C 8,7 km/h (2 Bft)
21.04.2019 12:30 21,5 C 20,3 C 25,4 C 25,4 C 38 % 32 % 1022,6 hPa 0,0 l/m 6,1 km/h (2 Bft) NW 315 3,1 C 25,4 C 7,1 km/h (2 Bft)
21.04.2019 12:25 21,5 C 20,1 C 25,8 C 25,8 C 38 % 32 % 1022,6 hPa 0,0 l/m 5,1 km/h (1 Bft) O-NO 67 2,9 C 25,8 C 6,8 km/h (2 Bft)
21.04.2019 12:20 21,6 C 19,9 C 25,9 C 25,9 C 37 % 33 % 1023,0 hPa 0,0 l/m 4,2 km/h (1 Bft) SO 135 3,2 C 25,9 C 4,2 km/h (1 Bft)
21.04.2019 12:15 21,6 C 19,7 C 25,4 C 25,4 C 37 % 33 % 1023,0 hPa 0,0 l/m 4,5 km/h (1 Bft) O-NO 67 3,0 C 25,4 C 0,0 km/h (0 Bft)
21.04.2019 12:10 21,6 C 19,6 C 24,4 C 24,4 C 37 % 31 % 1023,0 hPa 0,0 l/m 7,4 km/h (2 Bft) SO 135 2,0 C 24,4 C 10,3 km/h (2 Bft)
21.04.2019 12:05 21,7 C 19,5 C 24,2 C 24,2 C 37 % 32 % 1023,0 hPa 0,0 l/m 8,4 km/h (2 Bft) N 360 2,4 C 24,2 C 7,7 km/h (2 Bft)
21.04.2019 12:00 21,8 C 19,4 C 24,5 C 24,5 C 37 % 33 % 1023,2 hPa 0,0 l/m 8,0 km/h (2 Bft) N 360 2,7 C 24,5 C 15,4 km/h (3 Bft)
21.04.2019 11:55 21,8 C 19,3 C 24,5 C 24,5 C 38 % 33 % 1023,2 hPa 0,0 l/m 6,8 km/h (2 Bft) NW 315 2,6 C 24,5 C 13,8 km/h (3 Bft)
21.04.2019 11:50 21,8 C 19,2 C 24,1 C 24,1 C 37 % 34 % 1023,2 hPa 0,0 l/m 7,4 km/h (2 Bft) NW 315 3,0 C 24,1 C 20,0 km/h (4 Bft)
21.04.2019 11:45 21,8 C 19,0 C 24,0 C 24,0 C 38 % 35 % 1023,2 hPa 0,0 l/m 7,4 km/h (2 Bft) S 180 3,2 C 24,0 C 4,2 km/h (1 Bft)
21.04.2019 11:40 21,9 C 18,7 C 23,9 C 23,9 C 36 % 34 % 1023,8 hPa 0,0 l/m 7,1 km/h (2 Bft) NW 315 2,5 C 23,9 C 17,7 km/h (3 Bft)
21.04.2019 11:35 22,0 C 18,5 C 23,8 C 23,8 C 36 % 35 % 1023,8 hPa 0,0 l/m 7,7 km/h (2 Bft) N-NW 337 2,8 C 23,8 C 9,0 km/h (2 Bft)
21.04.2019 11:30 22,0 C 18,1 C 23,5 C 23,5 C 36 % 35 % 1023,8 hPa 0,0 l/m 8,0 km/h (2 Bft) W-NW 292 2,4 C 23,5 C 6,4 km/h (2 Bft)
21.04.2019 11:25 22,0 C 18,0 C 23,3 C 23,3 C 37 % 35 % 1023,8 hPa 0,0 l/m 8,7 km/h (2 Bft) N 360 2,3 C 23,3 C 8,4 km/h (2 Bft)
21.04.2019 11:20 22,1 C 17,6 C 23,3 C 23,3 C 37 % 39 % 1023,9 hPa 0,0 l/m 8,7 km/h (2 Bft) N 360 3,5 C 23,3 C 16,7 km/h (3 Bft)
21.04.2019 11:15 22,1 C 17,4 C 23,7 C 23,7 C 37 % 39 % 1023,9 hPa 0,0 l/m 8,7 km/h (2 Bft) N-NW 337 3,3 C 23,7 C 12,6 km/h (3 Bft)
21.04.2019 11:10 22,1 C 16,9 C 24,0 C 24,0 C 37 % 41 % 1023,9 hPa 0,0 l/m 6,4 km/h (2 Bft) W 270 3,6 C 24,0 C 14,8 km/h (3 Bft)
21.04.2019 11:05 22,1 C 16,6 C 24,5 C 24,5 C 38 % 42 % 1023,9 hPa 0,0 l/m 5,5 km/h (2 Bft) N-NW 337 3,6 C 24,5 C 10,9 km/h (2 Bft)
21.04.2019 11:00 22,0 C 16,1 C 24,9 C 24,9 C 38 % 45 % 1023,8 hPa 0,0 l/m 4,8 km/h (1 Bft) O-SO 112 4,2 C 24,9 C 12,2 km/h (2 Bft)
21.04.2019 10:55 22,0 C 15,6 C 25,1 C 25,1 C 38 % 47 % 1023,8 hPa 0,0 l/m 4,5 km/h (1 Bft) W 270 4,3 C 25,1 C 3,5 km/h (1 Bft)
21.04.2019 10:50 22,0 C 15,1 C 25,7 C 25,7 C 38 % 48 % 1023,8 hPa 0,0 l/m 2,3 km/h (1 Bft) N-NW 337 4,2 C 25,7 C 12,2 km/h (2 Bft)
21.04.2019 10:45 22,0 C 14,5 C 25,7 C 25,7 C 39 % 50 % 1023,8 hPa 0,0 l/m 1,0 km/h (0 Bft) S-SO 157 4,2 C 25,7 C 3,5 km/h (1 Bft)
21.04.2019 10:40 21,9 C 14,1 C 25,5 C 25,5 C 39 % 53 % 1023,8 hPa 0,0 l/m 1,3 km/h (1 Bft) N 360 4,7 C 25,5 C 4,8 km/h (1 Bft)
21.04.2019 10:35 21,8 C 13,7 C 25,2 C 25,2 C 39 % 55 % 1023,8 hPa 0,0 l/m 1,9 km/h (1 Bft) W 270 4,8 C 25,2 C 0,0 km/h (0 Bft)
21.04.2019 10:30 21,7 C 13,1 C 24,4 C 24,4 C 39 % 55 % 1023,8 hPa 0,0 l/m 1,3 km/h (1 Bft) SO 135 4,3 C 24,4 C 4,5 km/h (1 Bft)
21.04.2019 10:25 21,6 C 12,7 C 24,2 C 24,2 C 39 % 56 % 1023,8 hPa 0,0 l/m 1,9 km/h (1 Bft) SO 135 4,2 C 24,2 C 0,0 km/h (0 Bft)
21.04.2019 10:20 21,4 C 12,1 C 23,3 C 23,3 C 39 % 56 % 1023,7 hPa 0,0 l/m 1,9 km/h (1 Bft) O-NO 67 3,6 C 23,3 C 0,0 km/h (0 Bft)
21.04.2019 10:15 21,4 C 11,7 C 22,7 C 22,7 C 39 % 58 % 1023,7 hPa 0,0 l/m 0,6 km/h (0 Bft) SO 135 3,7 C 22,7 C 3,9 km/h (1 Bft)
21.04.2019 10:10 21,3 C 11,1 C 21,2 C 21,2 C 39 % 58 % 1023,7 hPa 0,0 l/m 2,9 km/h (1 Bft) N-NO 22 3,2 C 21,2 C 0,0 km/h (0 Bft)
21.04.2019 10:05 21,2 C 10,8 C 20,1 C 20,1 C 39 % 59 % 1023,7 hPa 0,0 l/m 5,1 km/h (1 Bft) S-SO 157 3,1 C 20,1 C 3,2 km/h (1 Bft)
21.04.2019 10:00 21,2 C 10,2 C 19,7 C 19,7 C 39 % 60 % 1023,7 hPa 0,0 l/m 5,5 km/h (2 Bft) SO 135 2,8 C 19,7 C 7,7 km/h (2 Bft)
21.04.2019 09:55 21,2 C 9,8 C 19,5 C 19,5 C 39 % 61 % 1023,7 hPa 0,0 l/m 4,8 km/h (1 Bft) SO 135 2,6 C 19,5 C 8,7 km/h (2 Bft)
21.04.2019 09:50 21,1 C 9,1 C 18,8 C 18,8 C 40 % 65 % 1023,7 hPa 0,0 l/m 4,2 km/h (1 Bft) S-SO 157 2,9 C 18,8 C 11,6 km/h (2 Bft)
21.04.2019 09:45 21,1 C 8,7 C 18,4 C 18,4 C 40 % 65 % 1023,7 hPa 0,0 l/m 5,1 km/h (1 Bft) SO 135 2,5 C 18,4 C 8,7 km/h (2 Bft)
21.04.2019 09:40 21,2 C 7,8 C 18,1 C 18,1 C 41 % 68 % 1024,1 hPa 0,0 l/m 4,8 km/h (1 Bft) O-SO 112 2,3 C 18,1 C 5,1 km/h (1 Bft)
21.04.2019 09:35 21,2 C 7,5 C 17,9 C 17,9 C 41 % 70 % 1024,1 hPa 0,0 l/m 4,5 km/h (1 Bft) S-SW 202 2,4 C 17,9 C 6,8 km/h (2 Bft)
21.04.2019 09:30 21,2 C 6,7 C 18,3 C 18,3 C 42 % 71 % 1024,1 hPa 0,0 l/m 2,6 km/h (1 Bft) SO 135 1,8 C 18,3 C 8,4 km/h (2 Bft)
21.04.2019 09:25 21,4 C 6,3 C 18,4 C 18,4 C 42 % 74 % 1024,1 hPa 0,0 l/m 0,3 km/h (0 Bft) SO 135 2,0 C 18,4 C 7,1 km/h (2 Bft)
21.04.2019 09:20 21,5 C 5,6 C 17,2 C 17,2 C 43 % 75 % 1024,6 hPa 0,0 l/m 0,3 km/h (0 Bft) W 270 1,5 C 17,2 C 0,0 km/h (0 Bft)
21.04.2019 09:15 21,6 C 5,2 C 15,9 C 15,9 C 43 % 75 % 1024,6 hPa 0,0 l/m 0,6 km/h (0 Bft) S-SW 202 1,1 C 15,9 C 0,0 km/h (0 Bft)
21.04.2019 09:10 21,6 C 4,7 C 14,6 C 14,6 C 44 % 77 % 1024,6 hPa 0,0 l/m 1,0 km/h (0 Bft) S 180 1,0 C 14,6 C 4,8 km/h (1 Bft)
21.04.2019 09:05 21,7 C 4,3 C 13,5 C 13,5 C 45 % 78 % 1024,6 hPa 0,0 l/m 0,6 km/h (0 Bft) S-SW 202 0,8 C 13,5 C 0,0 km/h (0 Bft)
21.04.2019 09:00 21,7 C 3,6 C 11,5 C 11,5 C 47 % 79 % 1024,9 hPa 0,0 l/m 0,0 km/h (0 Bft) O-NO 67 0,3 C 11,5 C 0,0 km/h (0 Bft)
21.04.2019 08:55 21,8 C 3,3 C 9,7 C 9,7 C 47 % 79 % 1024,9 hPa 0,0 l/m 0,0 km/h (0 Bft) S-SW 202 0,0 C 9,7 C 0,0 km/h (0 Bft)
21.04.2019 08:50 21,8 C 2,7 C 7,3 C 7,3 C 47 % 80 % 1024,9 hPa 0,0 l/m 0,0 km/h (0 Bft) W 270 -0,4 C 7,3 C 0,0 km/h (0 Bft)
21.04.2019 08:45 21,8 C 2,3 C 5,8 C 5,8 C 47 % 80 % 1024,9 hPa 0,0 l/m 0,0 km/h (0 Bft) W 270 -0,8 C 5,8 C 0,0 km/h (0 Bft)
21.04.2019 08:40 21,8 C 1,9 C 2,1 C 2,1 C 47 % 81 % 1025,2 hPa 0,0 l/m 0,0 km/h (0 Bft) W 270 -1,0 C 2,1 C 0,0 km/h (0 Bft)
21.04.2019 08:35 21,9 C 1,6 C 1,3 C 0,7 C 47 % 81 % 1025,2 hPa 0,0 l/m 0,0 km/h (0 Bft) O-NO 67 -1,3 C 0,7 C 0,0 km/h (0 Bft)
21.04.2019 08:30 22,0 C 1,4 C 0,9 C 0,0 C 47 % 80 % 1025,2 hPa 0,0 l/m 0,6 km/h (0 Bft) S-SW 202 -1,7 C 0,0 C 0,0 km/h (0 Bft)
21.04.2019 08:25 22,0 C 1,2 C 0,7 C -0,4 C 47 % 80 % 1025,2 hPa 0,0 l/m 0,6 km/h (0 Bft) SW 225 -1,9 C -0,4 C 0,0 km/h (0 Bft)
21.04.2019 08:20 22,1 C 1,1 C 0,5 C -0,7 C 47 % 78 % 1025,7 hPa 0,0 l/m 0,3 km/h (0 Bft) S 180 -2,3 C -0,7 C 3,9 km/h (1 Bft)
21.04.2019 08:15 22,2 C 1,1 C 0,4 C -1,1 C 47 % 78 % 1025,7 hPa 0,0 l/m 0,3 km/h (0 Bft) S-SO 157 -2,3 C -1,1 C 0,0 km/h (0 Bft)
21.04.2019 08:10 22,3 C 0,9 C 0,1 C -1,4 C 46 % 78 % 1025,7 hPa 0,0 l/m 1,6 km/h (1 Bft) S-SO 157 -2,5 C -1,4 C 0,0 km/h (0 Bft)
21.04.2019 08:05 22,2 C 1,0 C 0,2 C -1,5 C 46 % 77 % 1025,7 hPa 0,0 l/m 2,3 km/h (1 Bft) S-SO 157 -2,6 C -1,5 C 0,0 km/h (0 Bft)
21.04.2019 08:00 22,4 C 0,9 C 0,0 C -1,9 C 46 % 77 % 1025,9 hPa 0,0 l/m 4,8 km/h (1 Bft) S-SO 157 -2,7 C -3,6 C 4,2 km/h (1 Bft)
21.04.2019 07:55 22,4 C 0,9 C 0,0 C -1,7 C 46 % 77 % 1025,9 hPa 0,0 l/m 4,2 km/h (1 Bft) SO 135 -2,7 C -1,7 C 5,8 km/h (2 Bft)
21.04.2019 07:50 22,5 C 1,0 C 0,0 C -1,9 C 46 % 77 % 1025,9 hPa 0,0 l/m 1,6 km/h (1 Bft) SO 135 -2,6 C -1,9 C 5,1 km/h (1 Bft)
21.04.2019 07:45 22,5 C 1,0 C 0,0 C -1,9 C 46 % 76 % 1025,9 hPa 0,0 l/m 2,9 km/h (1 Bft) SO 135 -2,7 C -1,9 C 4,5 km/h (1 Bft)
21.04.2019 07:40 22,6 C 1,0 C 0,0 C -2,0 C 46 % 76 % 1026,1 hPa 0,0 l/m 3,9 km/h (1 Bft) S-SO 157 -2,7 C -2,0 C 0,0 km/h (0 Bft)
21.04.2019 07:35 22,6 C 1,2 C 0,1 C -2,0 C 47 % 75 % 1026,1 hPa 0,0 l/m 3,5 km/h (1 Bft) S-SO 157 -2,7 C -2,0 C 7,4 km/h (2 Bft)
21.04.2019 07:30 22,6 C 1,5 C 0,3 C -2,1 C 47 % 75 % 1026,1 hPa 0,0 l/m 2,6 km/h (1 Bft) O-SO 112 -2,4 C -2,1 C 3,2 km/h (1 Bft)
21.04.2019 07:25 22,6 C 1,6 C 0,4 C -2,1 C 47 % 75 % 1026,1 hPa 0,0 l/m 3,9 km/h (1 Bft) O-SO 112 -2,3 C -2,1 C 4,2 km/h (1 Bft)
21.04.2019 07:20 22,4 C 1,7 C 0,4 C -2,2 C 47 % 75 % 1025,6 hPa 0,0 l/m 2,9 km/h (1 Bft) S-SO 157 -2,2 C -2,2 C 5,1 km/h (1 Bft)
21.04.2019 07:15 22,4 C 1,7 C 0,4 C -2,3 C 47 % 76 % 1025,6 hPa 0,0 l/m 1,9 km/h (1 Bft) SO 135 -2,1 C -2,3 C 7,4 km/h (2 Bft)
21.04.2019 07:10 22,2 C 1,3 C 0,1 C -2,3 C 47 % 76 % 1025,6 hPa 0,0 l/m 2,3 km/h (1 Bft) O-SO 112 -2,5 C -2,3 C 0,0 km/h (0 Bft)
21.04.2019 07:05 22,1 C 1,3 C 0,1 C -2,4 C 47 % 75 % 1025,6 hPa 0,0 l/m 1,9 km/h (1 Bft) S-SO 157 -2,6 C -2,4 C 0,0 km/h (0 Bft)
21.04.2019 07:00 22,0 C 1,5 C 0,2 C -2,3 C 47 % 76 % 1025,7 hPa 0,0 l/m 1,6 km/h (1 Bft) S 180 -2,3 C -2,3 C 0,0 km/h (0 Bft)
21.04.2019 06:55 21,9 C 1,1 C -0,1 C -2,4 C 47 % 75 % 1025,7 hPa 0,0 l/m 3,5 km/h (1 Bft) S-SO 157 -2,8 C -2,4 C 0,0 km/h (0 Bft)
21.04.2019 06:50 21,8 C 1,5 C 0,1 C -2,7 C 47 % 75 % 1025,7 hPa 0,0 l/m 5,5 km/h (2 Bft) S 180 -2,4 C -4,9 C 4,2 km/h (1 Bft)
21.04.2019 06:45 21,8 C 1,6 C 0,2 C -2,6 C 47 % 75 % 1025,7 hPa 0,0 l/m 5,1 km/h (1 Bft) SO 135 -2,3 C -4,6 C 3,2 km/h (1 Bft)
21.04.2019 06:40 21,8 C 1,6 C 0,3 C -2,4 C 47 % 76 % 1025,5 hPa 0,0 l/m 4,5 km/h (1 Bft) SO 135 -2,2 C -2,4 C 10,9 km/h (2 Bft)
21.04.2019 06:35 21,8 C 1,5 C 0,2 C -2,5 C 47 % 76 % 1025,5 hPa 0,0 l/m 3,2 km/h (1 Bft) SO 135 -2,3 C -2,5 C 6,8 km/h (2 Bft)
21.04.2019 06:30 21,8 C 1,2 C 0,0 C -2,5 C 47 % 76 % 1025,5 hPa 0,0 l/m 3,5 km/h (1 Bft) S-SO 157 -2,5 C -2,5 C 0,0 km/h (0 Bft)
21.04.2019 06:25 21,8 C 1,2 C -0,1 C -2,7 C 47 % 76 % 1025,5 hPa 0,0 l/m 4,8 km/h (1 Bft) S-SO 157 -2,5 C -4,5 C 5,5 km/h (2 Bft)
21.04.2019 06:20 21,9 C 1,1 C -0,1 C -2,6 C 47 % 77 % 1025,6 hPa 0,0 l/m 2,3 km/h (1 Bft) O 90 -2,5 C -2,6 C 5,1 km/h (1 Bft)
21.04.2019 06:15 22,0 C 1,0 C -0,2 C -2,6 C 47 % 76 % 1025,6 hPa 0,0 l/m 1,3 km/h (1 Bft) O-NO 67 -2,7 C -2,6 C 4,8 km/h (1 Bft)
21.04.2019 06:10 22,0 C 0,9 C -0,3 C -2,6 C 47 % 76 % 1025,6 hPa 0,0 l/m 2,6 km/h (1 Bft) S-SO 157 -2,8 C -2,6 C 0,0 km/h (0 Bft)
21.04.2019 06:05 22,1 C 0,9 C -0,3 C -2,6 C 47 % 76 % 1025,6 hPa 0,0 l/m 4,5 km/h (1 Bft) S 180 -2,8 C -2,6 C 0,0 km/h (0 Bft)
21.04.2019 06:00 22,2 C 1,2 C 0,0 C -2,5 C 47 % 75 % 1026,1 hPa 0,0 l/m 3,5 km/h (1 Bft) SO 135 -2,7 C -2,5 C 8,0 km/h (2 Bft)
21.04.2019 05:55 22,2 C 1,5 C 0,2 C -2,5 C 47 % 75 % 1026,1 hPa 0,0 l/m 1,0 km/h (0 Bft) S-SO 157 -2,4 C -2,5 C 4,2 km/h (1 Bft)
21.04.2019 05:50 22,3 C 1,6 C 0,2 C -2,5 C 47 % 76 % 1026,1 hPa 0,0 l/m 0,3 km/h (0 Bft) S 180 -2,2 C -2,5 C 4,2 km/h (1 Bft)
21.04.2019 05:45 22,2 C 1,6 C 0,2 C -2,5 C 47 % 76 % 1026,1 hPa 0,0 l/m 0,3 km/h (0 Bft) SO 135 -2,2 C -2,5 C 0,0 km/h (0 Bft)
21.04.2019 05:40 22,4 C 1,3 C 0,1 C -2,4 C 47 % 76 % 1026,1 hPa 0,0 l/m 1,0 km/h (0 Bft) S 180 -2,5 C -2,4 C 0,0 km/h (0 Bft)
21.04.2019 05:35 22,4 C 1,3 C 0,1 C -2,3 C 47 % 75 % 1026,1 hPa 0,0 l/m 3,2 km/h (1 Bft) S-SO 157 -2,6 C -2,3 C 0,0 km/h (0 Bft)
21.04.2019 05:30 22,5 C 1,6 C 0,3 C -2,3 C 47 % 76 % 1026,1 hPa 0,0 l/m 4,5 km/h (1 Bft) S-SO 157 -2,2 C -2,3 C 6,1 km/h (2 Bft)
21.04.2019 05:25 22,5 C 1,3 C 0,0 C -2,6 C 47 % 77 % 1026,1 hPa 0,0 l/m 5,1 km/h (1 Bft) SO 135 -2,3 C -4,6 C 8,0 km/h (2 Bft)
21.04.2019 05:20 22,6 C 1,4 C -0,2 C -3,3 C 47 % 75 % 1026,5 hPa 0,0 l/m 7,1 km/h (2 Bft) SO 135 -2,5 C -6,3 C 11,3 km/h (2 Bft)
21.04.2019 05:15 22,6 C 1,5 C -0,1 C -3,3 C 47 % 75 % 1026,5 hPa 0,0 l/m 7,4 km/h (2 Bft) SO 135 -2,4 C -6,4 C 9,0 km/h (2 Bft)
21.04.2019 05:10 22,7 C 1,7 C 0,4 C -2,2 C 47 % 75 % 1026,5 hPa 0,0 l/m 4,5 km/h (1 Bft) SO 135 -2,2 C -2,2 C 6,1 km/h (2 Bft)
21.04.2019 05:05 22,7 C 1,9 C 0,5 C -2,2 C 47 % 75 % 1026,5 hPa 0,0 l/m 2,9 km/h (1 Bft) SO 135 -2,1 C -2,2 C 5,8 km/h (2 Bft)
21.04.2019 05:00 22,7 C 1,8 C 0,5 C -2,1 C 47 % 75 % 1026,2 hPa 0,0 l/m 1,0 km/h (0 Bft) SO 135 -2,1 C -2,1 C 0,0 km/h (0 Bft)
_ Min-Zeit 04:25 08:10 06:10 05:20 11:40 15:30 04:25 - 03:10 - - 06:10 05:15 03:40
Minimum _ 19,6 C 0,9 C -0,3 C -3,3 C 36 % 28 % 1015,8 hPa - 0,0 km/h (0 Bft) - - -2,8 C -6,4 C 0,0 km/h (0 Bft)
_ Max-Zeit 05:10 16:10 16:20 16:20 03:25 08:40 05:20 04:25 14:20 - - 16:50 16:20 14:20
Maximum _ 22,7 C 22,9 C 26,1 C 26,1 C 48 % 81 % 1026,5 hPa 0,0 l/m 10,6 km/h
N-NW (2 Bft)
- - 4,9 C 26,1 C 30,9 km/h
N-NW (5 Bft)
Durchschnitt _ 21,2 C 10,7 C 11,9 C 10,5 C 45 % 57 % 1021,4 hPa #0,0 l/m 2,8 km/h (1 Bft) SO - 1,5 C 10,5 C 4,0 km/h (1 Bft)
© Franz Lackinger